Location: Unspecified
(47.6578°N, 23.5640°E)
Time: 14:31:47
(UTC+02:00)

ISS - Pass Details

Date: 03 December 2017
Orbit: 403 x 407 km, 51.6° (Epoch: 12 December)

Event Time Altitude Azimuth Distance (km) Brightness Sun altitude
Rises 18:06:06 0° 253° (WSW) 2,325 2.0 -14.7°
Reaches altitude 10° 18:08:11 10° 256° (WSW) 1,466 0.4 -15.0°
Maximum altitude 18:11:28 67° 341° (NNW) 444 -3.7 -15.5°
Enters shadow 18:12:36 37° 52° (NE) 656 -3.3 -15.7°
